Location: Braunsdorf
(50.7357°N, 11.9136°E)
Time: 19:16:13
(UTC+00:00)

CZ-4C R/B - Pass Details

Date: 17 February 2020
Orbit: 641 x 1361 km, 63.4° (Epoch: 05 April)

Event Time Altitude Azimuth Distance (km) Brightness Sun altitude
Exits shadow 03:29:42 66° 339° (NNW) 929 2.2 -27.7°
Drops below altitude 10° 03:35:43 10° 42° (NE) 2,740 5.5 -26.8°
Sets 03:38:35 0° 45° (NE) 3,813 6.5 -26.4°
